User: anonymous   Login
Location: Appletree Creek
(38.7363°N, 122.6833°W)
Time: 06:24:54
(UTC+00:00)
Language:

Cosmos 2061 Rocket - Orbit

View from above orbital plane
View from above orbital plane
View from above satellite
View from above satellite

Ground track
Ground track

The orbit data is extracted from the following two-line orbital elements,

1 20528U 90023B   20336.39462437 +.00000009 +00000-0 -70097-5 0  9991
2 20528 082.9373 210.0924 0032893 113.8519 059.5679 13.72882121538082
Epoch (UTC): 01 December 2020 09:28:15
Eccentricity: 0.0032893
inclination: 82.9373°
perigee height: 965 km
apogee height: 1013 km
right ascension of ascending node: 210.0924°
argument of perigee: 113.8519°
revolutions per day: 13.72882121
mean anomaly at epoch: 59.5679°
orbit number at epoch: 53808

The dashed part of the orbit path shows where the satellite is in the earth's shadow,  

DLR